KAZSAT-3

Last updated on Thu Nov 21 2024 00:02:42 GMT+0000 (Coordinated Universal Time)

1 39728U 14023B 24325.22549441 .00000062 00000+0 00000+0 0 9992 2 39728 0.0427 84.5640 0000517 206.9587 267.8959 1.00270867 36704
UTC large
Height (km)
Speed (km/s)
/
Latitude / Longitude
Inclination (degrees)
Orbital Period (minutes)
Azimuth
Elevation
Range (km)
Doppler Factor

Next 0 passes for location: London (51.5072 / 0.1276)

Sorry there are no passes over London.